Weather History for St. Johnsbury, VT

Change the Weather History Date:

Friday, November 16, 2012

  Actual Average Record
Temperature  
Mean Temperature 30 °F 36 °F  
Max Temperature 42 °F 44 °F 69 °F (2006)
Min Temperature 18 °F 28 °F 2 °F (1933)
Degree Days  
Heating Degree Days 35 29  
Month to date heating degree days 452 418  
Since 1 July heating degree days 1179 1205  
Moisture  
Dew Point 21 °F    
Average Humidity 69    
Maximum Humidity 92    
Minimum Humidity 45    
Precipitation  
Precipitation 0.00 in 0.11 in 1.31 in (2005)
Month to date precipitation 0.85 1.84  
Year to date precipitation 30.54 34.86  
Sea Level Pressure  
Sea Level Pressure 30.40 in    
Wind  
Wind Speed - (North)    
Max Wind Speed -    
Max Gust Speed -    
T = Trace of Precipitation, MM = Missing Value Source: NWS Daily Summary

Daily Weather History Graph

Daily Weather History Graph

Search for Another Location

Airport:

Trip Planner

Search our weather history database for the weather conditions in past years. The results will help you decide how hot, cold, wet, or windy it might be!

Date:

Astronomy

Nov. 16, 2012 Rise Set
Actual Time 6:46 AM EST 4:19 PM EST
Civil Twilight 6:14 AM EST 4:50 PM EST
Nautical Twilight 5:39 AM EST 5:26 PM EST
Astronomical Twilight 5:04 AM EST 6:00 PM EST
Moon 9:40 AM EST (11/16) 7:13 PM EST (11/16)
Length of Visible Light 10h 36m
Length of Day
9h 33m
Waxing Crescent, 11% of the Moon is Illuminated
Nov 16
Waxing Crescent
Nov 20
First Quarter
Nov 28
Full
Dec 6
Last Quarter
Dec 13
New

Hourly Weather History & Observations

Time (EST) Temp. Dew Point Humidity Pressure Visibility Wind Dir Wind Speed Gust Speed Precip Events Conditions
12:54 AM 21.9 °F 19.0 °F 89% 30.35 in - North - - N/A   Unknown
1:54 AM 21.0 °F 19.0 °F 92% 30.36 in - North - - N/A   Unknown
2:54 AM 19.9 °F 17.1 °F 89% 30.35 in - North - - N/A   Unknown
3:54 AM 19.9 °F 17.1 °F 89% 30.35 in - North - - N/A   Unknown
4:54 AM 19.0 °F 17.1 °F 92% 30.36 in - North - - N/A   Unknown
5:54 AM 18.0 °F 16.0 °F 92% 30.37 in - North - - N/A   Unknown
6:54 AM 18.0 °F 16.0 °F 92% 30.39 in - North - - N/A   Unknown
7:54 AM 19.9 °F 17.1 °F 89% 30.40 in - North - - N/A   Unknown
8:54 AM 21.9 °F 19.0 °F 89% 30.40 in - North - - N/A   Unknown
9:54 AM 27.0 °F 21.9 °F 81% 30.40 in - North - - N/A   Unknown
10:54 AM 34.0 °F 25.0 °F 70% 30.38 in - North - - N/A   Unknown
11:54 AM 39.0 °F 26.1 °F 60% 30.35 in - North - - N/A   Unknown
12:54 PM 41.0 °F 24.1 °F 51% 30.34 in - North - - N/A   Unknown
1:54 PM 42.1 °F 23.0 °F 47% 30.34 in - North - - N/A   Unknown
2:54 PM 41.0 °F 23.0 °F 49% 30.35 in - North - - N/A   Unknown
3:54 PM 39.0 °F 23.0 °F 53% 30.39 in - North - - N/A   Unknown
4:54 PM 37.0 °F 23.0 °F 57% 30.40 in - North - - N/A   Unknown
5:54 PM 32.0 °F 23.0 °F 69% 30.43 in - North - - N/A   Unknown
6:54 PM 30.0 °F 24.1 °F 79% 30.45 in - North - - N/A   Unknown
7:54 PM 28.9 °F 23.0 °F 78% 30.46 in - North - - N/A   Unknown
8:54 PM 27.0 °F 23.0 °F 85% 30.48 in - North - - N/A   Unknown
9:54 PM 28.0 °F 25.0 °F 88% 30.49 in - North - - N/A   Unknown
10:54 PM 28.9 °F 24.1 °F 82% 30.49 in - North - - N/A   Unknown
11:54 PM 28.9 °F 24.1 °F 82% 30.48 in - North - - N/A   Unknown